Midland, TX

5:04 AM CDT on September 25, 2016 (GMT -0500)
Midland International

Weather History for KMAF - March, 2013

Change the Weather History Date:

Thursday, March 28, 2013

  Actual Average Record
Temperature  
Mean Temperature 65 °F 59 °F  
Max Temperature 83 °F 74 °F 92 °F (1963)
Min Temperature 46 °F 44 °F 19 °F (1931)
Degree Days  
Heating Degree Days 0 7  
Month to date heating degree days 238 287  
Since 1 July heating degree days 2210 2524  
Cooling Degree Days 0 1  
Month to date cooling degree days 24 11  
Year to date cooling degree days 24 13  
Growing Degree Days 14 (Base 50)    
Moisture  
Dew Point 45 °F    
Average Humidity 56    
Maximum Humidity 93    
Minimum Humidity 18    
Precipitation  
Precipitation 0.00 in 0.02 in 0.69 in (2006)
Month to date precipitation T 0.54  
Year to date precipitation 1.53 1.81  
Snow  
Snow 0.00 in - - ()
Month to date snowfall 0.0  
Since 1 July snowfall 1.0  
Snow Depth 0.00 in    
Sea Level Pressure  
Sea Level Pressure 29.96 in    
Wind  
Wind Speed 9 mph (South)    
Max Wind Speed 21 mph    
Max Gust Speed 25 mph    
Visibility 10 miles    
Events      
T = Trace of Precipitation, MM = Missing Value Source: NWS Daily Summary

Daily Weather History Graph

Daily Weather History Graph

Search for Another Location

Airport or City:

Trip Planner

Search our weather history database for the weather conditions in past years. The results will help you decide how hot, cold, wet, or windy it might be!

Date:

Astronomy

Mar. 28, 2013 Rise Set
Actual Time 7:41 AM CDT 8:06 PM CDT
Civil Twilight 7:17 AM CDT 8:30 PM CDT
Nautical Twilight 6:48 AM CDT 8:59 PM CDT
Astronomical Twilight 6:19 AM CDT 9:28 PM CDT
Moon 9:51 PM CDT (3/28) 8:18 AM CDT (3/28)
Length of Visible Light 13h 13m
Length of Day
12h 24m
Full, 98% of the Moon is Illuminated
Mar 28
Full
Apr 2
Last Quarter
Apr 10
New
Apr 18
First Quarter
Apr 25
Full

Hourly Weather History & Observations

Time (CDT) Temp. Dew Point Humidity Pressure Visibility Wind Dir Wind Speed Gust Speed Precip Events Conditions
12:53 AM 57.0 °F 44.1 °F 62% 29.97 in 10.0 mi South 18.4 mph - N/A   Clear
1:53 AM 55.9 °F 46.0 °F 69% 29.96 in 10.0 mi South 17.3 mph - N/A   Clear
2:53 AM 54.0 °F 46.0 °F 75% 29.96 in 10.0 mi South 17.3 mph - N/A   Clear
3:53 AM 53.1 °F 46.0 °F 77% 29.96 in 10.0 mi South 9.2 mph - N/A   Clear
4:53 AM 52.0 °F 46.0 °F 80% 29.94 in 10.0 mi South 11.5 mph - N/A   Clear
5:53 AM 50.0 °F 45.0 °F 83% 29.94 in 10.0 mi South 9.2 mph - N/A   Clear
6:53 AM 50.0 °F 46.0 °F 86% 29.95 in 10.0 mi South 8.1 mph - N/A   Clear
7:53 AM 46.9 °F 44.1 °F 90% 29.98 in 8.0 mi SSW 4.6 mph - N/A   Clear
8:53 AM 50.0 °F 46.0 °F 86% 30.00 in 8.0 mi Calm Calm - N/A   Clear
9:53 AM 54.0 °F 48.0 °F 80% 30.01 in 10.0 mi SSW 3.5 mph - N/A   Clear
10:53 AM 57.0 °F 48.9 °F 74% 30.03 in 10.0 mi Calm Calm - N/A   Clear
11:53 AM 61.0 °F 48.9 °F 64% 30.04 in 10.0 mi Calm Calm - N/A   Scattered Clouds
12:53 PM 66.0 °F 48.9 °F 54% 30.01 in 10.0 mi Calm Calm - N/A   Partly Cloudy
1:53 PM 71.1 °F 46.9 °F 42% 29.99 in 10.0 mi Variable 4.6 mph - N/A   Partly Cloudy
2:53 PM 77.0 °F 39.9 °F 26% 29.95 in 10.0 mi Calm Calm - N/A   Clear
3:53 PM 79.0 °F 42.1 °F 27% 29.93 in 10.0 mi ESE 3.5 mph - N/A   Clear
4:53 PM 82.9 °F 35.1 °F 18% 29.90 in 10.0 mi SSE 8.1 mph - N/A   Clear
5:53 PM 82.9 °F 37.9 °F 20% 29.89 in 10.0 mi South 10.4 mph - N/A   Clear
6:53 PM 82.0 °F 37.0 °F 20% 29.89 in 10.0 mi SSE 12.7 mph - N/A   Clear
7:53 PM 77.0 °F 44.1 °F 31% 29.91 in 10.0 mi South 16.1 mph - N/A   Clear
8:53 PM 72.0 °F 46.9 °F 41% 29.94 in 10.0 mi SSE 15.0 mph - N/A   Clear
9:53 PM 68.0 °F 50.0 °F 52% 29.96 in 10.0 mi SSE 19.6 mph 24.2 mph N/A   Clear
10:53 PM 64.9 °F 51.1 °F 61% 29.99 in 10.0 mi South 18.4 mph 25.3 mph N/A   Clear
11:53 PM 63.0 °F 52.0 °F 67% 29.99 in 10.0 mi South 17.3 mph - N/A   Clear